When you browse on this site, cookies collect data to enhance your experience and personalize the content and advertising you see.
Visit our Privacy Policy to learn more. By continuing to use the site, you agree to this use of cookies and data.
  • In Schweiz
  • Länderverzeichnis
  • Für 7 Tage
  • Wassertemperatur
  • Satellitenkarten
  • Wetterkarte
  • Widgets
  • user-avatar
    Anmelden

    Stündliche Wetter Nettetal

    Heute, 23 Mai, Donnerstag

    Zeit Temperatur Niederschläge Wind Luftdruck Luftfeuchtigkeit
    00:00 +11°C° 0 mm 1 m/S 760 mmHg 74%
    01:00 +11°C° 0 mm 1 m/S 760 mmHg 76%
    02:00 +11°C° 0 mm 1 m/S 760 mmHg 77%
    03:00 +9°C° 0 mm 0 m/S 760 mmHg 79%
    04:00 +11°C° 0 mm 1 m/S 759 mmHg 76%
    05:00 +13°C° 0 mm 1 m/S 759 mmHg 74%
    06:00 +14°C° 0 mm 1 m/S 759 mmHg 68%
    07:00 +16°C° 0 mm 2 m/S 759 mmHg 62%
    08:00 +18°C° 0 mm 2 m/S 759 mmHg 56%
    09:00 +20°C° 0 mm 2 m/S 759 mmHg 50%
    10:00 +20°C° 0 mm 2 m/S 759 mmHg 50%
    11:00 +21°C° 0 mm 3 m/S 759 mmHg 50%
    12:00 +21°C° 0 mm 3 m/S 758 mmHg 50%
    13:00 +21°C° 0 mm 3 m/S 758 mmHg 48%
    14:00 +22°C° 0 mm 3 m/S 758 mmHg 47%
    15:00 +22°C° 0 mm 3 m/S 758 mmHg 45%
    16:00 +21°C° 0 mm 3 m/S 757 mmHg 48%
    17:00 +20°C° 0 mm 2 m/S 757 mmHg 51%
    18:00 +20°C° 0 mm 2 m/S 757 mmHg 54%
    19:00 +18°C° 0 mm 2 m/S 757 mmHg 55%
    20:00 +16°C° 0 mm 1 m/S 757 mmHg 56%
    21:00 +15°C° 0 mm 1 m/S 757 mmHg 56%
    22:00 +15°C° 0 mm 1 m/S 757 mmHg 57%
    23:00 +14°C° 0 mm 1 m/S 757 mmHg 57%

    Morgen, 24 Mai, Freitag

    Zeit Temperatur Niederschläge Wind Luftdruck Luftfeuchtigkeit
    00:00 +14°C° 0 mm 1 m/S 757 mmHg 57%
    01:00 +14°C° 0 mm 1 m/S 757 mmHg 61%
    02:00 +13°C° 0 mm 1 m/S 757 mmHg 64%
    03:00 +13°C° 0 mm 2 m/S 757 mmHg 67%
    04:00 +14°C° 0 mm 2 m/S 757 mmHg 68%
    05:00 +15°C° 0 mm 1 m/S 757 mmHg 69%
    06:00 +15°C° 0 mm 1 m/S 757 mmHg 70%
    07:00 +17°C° 0 mm 2 m/S 757 mmHg 67%
    08:00 +19°C° 0 mm 2 m/S 756 mmHg 63%
    09:00 +20°C° 0 mm 2 m/S 756 mmHg 60%
    10:00 +21°C° 0.8 mm 2 m/S 756 mmHg 60%
    11:00 +21°C° 0.8 mm 3 m/S 756 mmHg 59%
    12:00 +22°C° 0.8 mm 3 m/S 756 mmHg 59%
    13:00 +22°C° 0.4 mm 3 m/S 756 mmHg 57%
    14:00 +22°C° 0.4 mm 3 m/S 756 mmHg 55%
    15:00 +22°C° 0.4 mm 4 m/S 756 mmHg 52%
    16:00 +21°C° 0.2 mm 4 m/S 756 mmHg 56%
    17:00 +20°C° 0.2 mm 4 m/S 756 mmHg 59%
    18:00 +19°C° 0.2 mm 4 m/S 756 mmHg 62%
    19:00 +17°C° 0 mm 4 m/S 756 mmHg 64%
    20:00 +14°C° 0 mm 3 m/S 757 mmHg 67%
    21:00 +12°C° 0 mm 3 m/S 757 mmHg 70%
    22:00 +12°C° 0 mm 2 m/S 758 mmHg 75%
    23:00 +10°C° 0 mm 2 m/S 758 mmHg 80%

    übermorgen, 25 Mai, Samstag

    Zeit Temperatur Niederschläge Wind Luftdruck Luftfeuchtigkeit
    00:00 +10°C° 0 mm 1 m/S 758 mmHg 86%
    01:00 +10°C° 0 mm 1 m/S 758 mmHg 87%
    02:00 +10°C° 0 mm 1 m/S 758 mmHg 89%
    03:00 +8°C° 0 mm 2 m/S 758 mmHg 91%
    04:00 +10°C° 0 mm 1 m/S 758 mmHg 87%
    05:00 +11°C° 0 mm 1 m/S 758 mmHg 84%
    06:00 +12°C° 0 mm 1 m/S 758 mmHg 80%
    07:00 +13°C° 0 mm 2 m/S 758 mmHg 74%
    08:00 +15°C° 0 mm 2 m/S 758 mmHg 68%
    09:00 +16°C° 0 mm 2 m/S 759 mmHg 62%
    10:00 +17°C° 0 mm 2 m/S 759 mmHg 59%
    11:00 +18°C° 0 mm 3 m/S 758 mmHg 55%
    12:00 +19°C° 0 mm 3 m/S 758 mmHg 51%
    13:00 +19°C° 0 mm 3 m/S 758 mmHg 51%
    14:00 +19°C° 0 mm 3 m/S 758 mmHg 51%
    15:00 +19°C° 0 mm 3 m/S 758 mmHg 51%
    16:00 +19°C° 0 mm 3 m/S 758 mmHg 54%
    17:00 +19°C° 0 mm 2 m/S 758 mmHg 57%
    18:00 +18°C° 0 mm 2 m/S 758 mmHg 59%
    19:00 +17°C° 0 mm 2 m/S 758 mmHg 63%
    20:00 +15°C° 0 mm 1 m/S 758 mmHg 67%
    21:00 +14°C° 0 mm 1 m/S 758 mmHg 70%
    22:00 +13°C° 0 mm 1 m/S 758 mmHg 73%
    23:00 +13°C° 0 mm 1 m/S 758 mmHg 76%

    26 Mai, Sonntag

    Zeit Temperatur Niederschläge Wind Luftdruck Luftfeuchtigkeit
    00:00 +12°C° 0 mm 1 m/S 758 mmHg 78%
    01:00 +12°C° 0 mm 2 m/S 758 mmHg 79%
    02:00 +10°C° 0 mm 2 m/S 757 mmHg 79%
    03:00 +10°C° 0 mm 2 m/S 757 mmHg 79%
    04:00 +11°C° 0 mm 3 m/S 757 mmHg 77%
    05:00 +12°C° 0 mm 3 m/S 757 mmHg 75%
    06:00 +13°C° 0 mm 4 m/S 756 mmHg 73%
    07:00 +14°C° 0 mm 4 m/S 756 mmHg 70%
    08:00 +17°C° 0 mm 4 m/S 756 mmHg 66%
    09:00 +18°C° 0 mm 4 m/S 756 mmHg 63%
    10:00 +19°C° 0 mm 4 m/S 756 mmHg 63%
    11:00 +20°C° 0 mm 4 m/S 755 mmHg 63%
    12:00 +21°C° 0 mm 4 m/S 755 mmHg 63%
    13:00 +21°C° 0.5 mm 4 m/S 755 mmHg 66%
    14:00 +21°C° 0.5 mm 4 m/S 754 mmHg 69%
    15:00 +21°C° 0.5 mm 4 m/S 754 mmHg 72%
    16:00 +20°C° 0.4 mm 4 m/S 754 mmHg 73%
    17:00 +20°C° 0.4 mm 3 m/S 753 mmHg 75%
    18:00 +20°C° 0.4 mm 3 m/S 753 mmHg 76%
    19:00 +18°C° 0 mm 3 m/S 753 mmHg 79%
    20:00 +17°C° 0 mm 2 m/S 753 mmHg 82%
    21:00 +16°C° 0 mm 2 m/S 753 mmHg 85%
    22:00 +16°C° 0 mm 3 m/S 753 mmHg 87%
    23:00 +14°C° 0 mm 3 m/S 752 mmHg 89%

    27 Mai, Montag

    Zeit Temperatur Niederschläge Wind Luftdruck Luftfeuchtigkeit
    00:00 +13°C° 0 mm 4 m/S 752 mmHg 91%
    01:00 +13°C° 0 mm 4 m/S 751 mmHg 91%
    02:00 +13°C° 0 mm 5 m/S 751 mmHg 91%
    03:00 +12°C° 0 mm 5 m/S 750 mmHg 92%
    04:00 +13°C° 0.1 mm 5 m/S 750 mmHg 91%
    05:00 +13°C° 0.1 mm 5 m/S 750 mmHg 91%
    06:00 +14°C° 0.1 mm 5 m/S 750 mmHg 91%
    07:00 +14°C° 0.6 mm 4 m/S 750 mmHg 92%
    08:00 +13°C° 0.6 mm 4 m/S 750 mmHg 92%
    09:00 +13°C° 0.6 mm 4 m/S 750 mmHg 92%
    10:00 +13°C° 0.1 mm 3 m/S 749 mmHg 89%
    11:00 +14°C° 0.1 mm 3 m/S 749 mmHg 85%
    12:00 +15°C° 0.1 mm 2 m/S 749 mmHg 81%
    13:00 +16°C° 0.1 mm 3 m/S 749 mmHg 72%
    14:00 +17°C° 0.1 mm 4 m/S 749 mmHg 64%
    15:00 +19°C° 0.1 mm 4 m/S 748 mmHg 56%
    16:00 +18°C° 0 mm 4 m/S 748 mmHg 57%
    17:00 +17°C° 0 mm 3 m/S 748 mmHg 59%
    18:00 +16°C° 0 mm 3 m/S 748 mmHg 61%
    19:00 +15°C° 0 mm 2 m/S 748 mmHg 63%
    20:00 +14°C° 0 mm 2 m/S 748 mmHg 65%
    21:00 +13°C° 0 mm 1 m/S 749 mmHg 68%
    22:00 +13°C° 0 mm 1 m/S 749 mmHg 71%
    23:00 +12°C° 0 mm 2 m/S 748 mmHg 74%

    28 Mai, Dienstag

    Zeit Temperatur Niederschläge Wind Luftdruck Luftfeuchtigkeit
    00:00 +12°C° 0 mm 2 m/S 748 mmHg 77%
    01:00 +10°C° 0 mm 2 m/S 748 mmHg 81%
    02:00 +10°C° 0 mm 2 m/S 748 mmHg 85%
    03:00 +9°C° 0 mm 2 m/S 748 mmHg 89%
    04:00 +10°C° 0 mm 2 m/S 748 mmHg 86%
    05:00 +10°C° 0 mm 3 m/S 749 mmHg 83%
    06:00 +11°C° 0 mm 3 m/S 749 mmHg 80%
    07:00 +12°C° 0 mm 3 m/S 749 mmHg 73%
    08:00 +14°C° 0 mm 3 m/S 749 mmHg 67%
    09:00 +16°C° 0 mm 3 m/S 749 mmHg 60%
    10:00 +17°C° 0.1 mm 3 m/S 749 mmHg 57%
    11:00 +18°C° 0.1 mm 3 m/S 749 mmHg 54%
    12:00 +19°C° 0.1 mm 3 m/S 749 mmHg 51%
    13:00 +19°C° 0.3 mm 3 m/S 749 mmHg 53%
    14:00 +19°C° 0.3 mm 4 m/S 750 mmHg 55%
    15:00 +18°C° 0.3 mm 4 m/S 750 mmHg 57%
    16:00 +17°C° 0.4 mm 4 m/S 750 mmHg 65%
    17:00 +15°C° 0.4 mm 5 m/S 751 mmHg 72%
    18:00 +14°C° 0.4 mm 5 m/S 751 mmHg 79%
    19:00 +13°C° 0.1 mm 5 m/S 752 mmHg 82%
    20:00 +12°C° 0.1 mm 5 m/S 753 mmHg 84%
    21:00 +10°C° 0.1 mm 5 m/S 754 mmHg 87%
    22:00 +9°C° 0 mm 5 m/S 755 mmHg 85%
    23:00 +8°C° 0 mm 4 m/S 755 mmHg 82%
    Mehr zeigen